[[{"header":{"parameterUnit":"m.s-1","parameterCategory":1,"la1":30.2991,"la2":30.254,"lo1":-89.0895,"lo2":-89.0444,"dy":0.0017,"dx":0.0017,"nx":28,"ny":28,"refTime":"2023-08-23T09:00:00:Z","depth":0,"parameterNumber":2,"parameterNumberName":"U-component_of_WINDS"},"data":[0,0,0,0,0,0,0,0,0,0,0,0,0,0,0,0,0,0,0,0,0,0,0,0,0,0,0,0,0,0,0,0,0,0,0,0,0,0,0,0,0,0,0,0,0,0,0,0,0,0,0,0,0,0,0,0,0,0,-3.3753,-3.3753,0,-3.3764,-3.3764,-3.3764,-3.3726,-3.3725,-3.3724,-3.3723,-3.3736,-3.3737,-3.3738,0,0,0,0,0,0,0,0,0,0,0,0,0,-3.3702,-3.3704,-3.3753,-3.3753,-3.3753,-3.3764,-3.3764,-3.3764,-3.3727,-3.3725,-3.3724,-3.3722,-3.3735,-3.3737,-3.3738,0,0,0,0,0,0,0,0,0,0,0,0,0,-3.372,-3.3704,-3.3753,-3.3735,-3.3734,-3.3764,-3.3764,-3.3764,-3.3727,-3.3725,-3.3723,-3.3722,-3.3735,-3.3737,-3.3739,-3.3786,0,0,-3.3745,-3.3746,0,0,0,0,0,0,0,0,-3.3719,-3.3722,-3.3738,-3.3737,-3.3735,-3.3742,-3.3751,-3.3771,-3.3727,-3.373,-3.3723,-3.3721,-3.3739,-3.3741,-3.3747,-3.3786,-3.3787,-3.3745,-3.3747,-3.3747,-3.3748,0,0,0,0,0,0,0,-3.3718,-3.3721,-3.3757,-3.3738,-3.3737,-3.3728,-3.3729,-3.3754,-3.3744,-3.3729,-3.3727,-3.3728,-3.3738,-3.3745,-3.3747,-3.3787,-3.3745,-3.3747,-3.3748,-3.3749,-3.3868,-3.387,0,0,0,0,0,0,-3.3719,-3.372,-3.3757,-3.3757,-3.3723,-3.3731,-3.3731,-3.3741,-3.3743,-3.3742,-3.373,-3.3727,-3.3742,-3.3744,-3.3747,-3.3802,-3.3747,-3.3749,-3.3751,-3.3866,-3.3868,-3.387,0,0,0,0,0,0,-3.3718,-3.3722,-3.3756,-3.3738,-3.3742,-3.3733,-3.3745,-3.3743,-3.3749,-3.3744,-3.3742,-3.3738,-3.3741,-3.3744,-3.3777,-3.3802,-3.375,-3.3752,-3.3864,-3.3867,-3.3869,-3.3914,0,0,0,0,0,0,-3.3716,-3.3722,-3.3739,-3.3739,-3.3743,-3.3785,-3.3747,-3.3744,-3.3753,-3.3748,-3.3751,-3.375,-3.374,-3.3774,-3.3779,-3.3804,-3.3754,-3.3861,-3.3865,-3.3868,-3.391,-3.3918,-3.3924,0,0,0,0,0,-3.3715,-3.3751,-3.374,-3.3744,-3.3763,-3.3786,-3.3789,-3.3775,-3.3755,-3.3772,-3.3769,-3.375,-3.3799,-3.3777,-3.3783,-3.3809,-3.386,-3.3864,-3.3868,-3.3906,-3.3916,-3.3924,0,0,0,0,0,0,-3.3753,-3.375,-3.3738,-3.3775,-3.3781,-3.378,-3.3801,-3.3786,-3.3798,-3.3794,-3.3778,-3.3779,-3.3815,-3.3816,-3.3791,-3.3856,-3.3826,-3.3832,-3.3853,-3.3862,-3.387,-3.3868,-3.3756,0,0,0,0,0,-3.3766,-3.3784,-3.3781,-3.3814,-3.3818,-3.3809,-3.3818,-3.3808,-3.3814,-3.3817,-3.3816,-3.3823,-3.384,-3.3852,-3.3867,-3.3911,-3.3911,-3.3932,-3.3939,-3.3945,-3.395,-3.3974,-3.3983,-3.3884,-3.3884,-3.3884,0,0,-3.3793,-3.3793,-3.3805,-3.3822,-3.3825,-3.3845,-3.3811,-3.3833,-3.3848,-3.382,-3.385,-3.3851,-3.3858,-3.3897,-3.3914,-3.3898,-3.3978,-3.3951,-3.3956,-3.3957,-3.398,-3.3989,-3.3997,-3.3887,-3.3887,-3.3886,0,0,-3.3851,-3.3853,-3.3881,-3.3886,-3.3892,-3.3887,-3.3894,-3.3896,-3.3895,-3.3925,-3.3905,-3.3924,-3.3953,-3.396,-3.3967,-3.4031,-3.4014,-3.4037,-3.4074,-3.4098,-3.4106,-3.4113,-3.4136,-3.4144,-3.4042,-3.4042,-3.4042,0,-3.3882,-3.391,-3.3897,-3.3921,-3.3929,-3.3906,-3.3935,-3.3941,-3.3952,-3.3959,-3.3942,-3.3981,-3.3984,-3.4024,-3.404,-3.4047,-3.4055,-3.4035,-3.4106,-3.4113,-3.4119,-3.4141,-3.4149,-3.4045,-3.4045,-3.4044,-3.4044,0,-3.395,-3.397,-3.3992,-3.4004,-3.4015,-3.4042,-3.4034,-3.4047,-3.4037,-3.4034,-3.4067,-3.4071,-3.4087,-3.4096,-3.4087,-3.4136,-3.4127,-3.4109,-3.4078,-3.4131,-3.4151,-3.416,-3.4049,-3.4048,-3.4047,-3.4046,0,0,-3.4029,-3.4035,-3.4043,-3.4049,-3.4056,-3.4072,-3.4099,-3.4115,-3.4127,-3.4137,-3.4159,-3.4187,-3.4171,-3.4179,-3.417,-3.4192,-3.4243,-3.4171,-3.4171,-3.4183,-3.4299,-3.4311,-3.4321,-3.4233,-3.4235,-3.4236,-3.4298,0,-3.4086,-3.413,-3.412,-3.4164,-3.4184,-3.4164,-3.4187,-3.4195,-3.4194,-3.4211,-3.4211,-3.423,-3.4207,-3.4212,-3.4233,-3.4232,-3.4266,-3.4228,-3.4254,-3.4255,-3.4251,-3.4331,-3.4344,-3.4402,-3.4306,-3.4307,-3.4308,0,-3.4156,-3.4169,-3.4215,-3.4221,-3.4229,-3.425,-3.4265,-3.4282,-3.4291,-3.4289,-3.43,-3.4288,-3.4316,-3.4287,-3.4326,-3.4301,-3.4312,-3.4314,-3.4316,-3.4316,-3.4283,-3.4333,-3.442,-3.4429,-3.432,-3.4319,-3.4318,0,-3.4209,-3.4238,-3.427,-3.4276,-3.4283,-3.4298,-3.4303,-3.431,-3.4321,-3.4336,-3.4343,-3.436,-3.437,-3.4384,-3.4378,-3.4358,-3.4419,-3.4389,-3.4418,-3.4418,-3.443,-3.4429,-3.4519,-3.4439,-3.4439,-3.4439,-3.4439,0,-3.4272,-3.4301,-3.4294,-3.4313,-3.4345,-3.4336,-3.4369,-3.437,-3.4378,-3.4398,-3.4383,-3.4403,-3.4394,-3.4414,-3.441,-3.4443,-3.4448,-3.4447,-3.4446,-3.4448,-3.4448,-3.4453,-3.4448,-3.4441,-3.4441,-3.4441,-3.444,0,-3.4335,-3.4331,-3.4364,-3.437,-3.4372,-3.4396,-3.4401,-3.442,-3.4419,-3.4445,-3.4451,-3.4449,-3.4472,-3.4468,-3.4493,-3.449,-3.4532,-3.4526,-3.4528,-3.4527,-3.4556,-3.4553,-3.4651,-3.4664,-3.4577,-3.4578,-3.4579,0,-3.4375,-3.4397,-3.4405,-3.4418,-3.4423,-3.4443,-3.4455,-3.4447,-3.446,-3.4474,-3.4492,-3.4513,-3.4529,-3.4567,-3.4569,-3.4588,-3.4582,-3.4615,-3.4585,-3.4587,-3.4582,-3.458,-3.4583,-3.4621,-3.4622,-3.4623,-3.4623,0,-3.4446,-3.4444,-3.4461,-3.4478,-3.4492,-3.4506,-3.4518,-3.4529,-3.4523,-3.4539,-3.4562,-3.4575,-3.4601,-3.4622,-3.4641,-3.4647,-3.4635,-3.4633,-3.4641,-3.4643,-3.4643,-3.4643,-3.4544,-3.463,-3.463,-3.4629,-3.4629,-3.4629,-3.4498,-3.4517,-3.4526,-3.4547,-3.4555,-3.4567,-3.4585,-3.4588,-3.4606,-3.4627,-3.4622,-3.4648,-3.466,-3.4684,-3.4692,-3.4713,-3.4701,-3.4712,-3.4714,-3.4717,-3.472,-3.4641,-3.4717,-3.4716,-3.4716,-3.4716,-3.4716,0,-3.4568,-3.4574,-3.4593,-3.461,-3.4626,-3.4614,-3.4628,-3.4642,-3.4665,-3.4677,-3.4694,-3.4721,-3.4743,-3.4748,-3.4769,-3.4785,-3.478,-3.4791,-3.4789,-3.4791,-3.473,-3.4721,-3.4795,-3.4795,-3.4795,-3.4795,-3.4795,-3.4795,-3.4606,-3.4638,-3.4637,-3.4674,-3.468,-3.4705,-3.4714,-3.4726,-3.4735,-3.4766,-3.4784,-3.4787,-3.4796,-3.4819,-3.4839,-3.484,-3.4848,-3.4861,-3.486,-3.4803,-3.4795,-3.4787,-3.4778,-3.4863,-3.4863,-3.4918,-3.4919,-3.4919]},{"header":{"parameterUnit":"m.s-1","parameterCategory":1,"la1":30.2991,"la2":30.254,"lo1":-89.0895,"lo2":-89.0444,"dy":0.0017,"dx":0.0017,"nx":28,"ny":28,"refTime":"2023-08-23T09:00:00:Z","depth":0,"parameterNumber":3,"parameterNumberName":"V-component_of_WINDS"},"data":[0,0,0,0,0,0,0,0,0,0,0,0,0,0,0,0,0,0,0,0,0,0,0,0,0,0,0,0,0,0,0,0,0,0,0,0,0,0,0,0,0,0,0,0,0,0,0,0,0,0,0,0,0,0,0,0,0,0,4.0556,4.0557,0,4.0641,4.0642,4.0643,4.0692,4.0692,4.0692,4.0693,4.0774,4.0776,4.0778,0,0,0,0,0,0,0,0,0,0,0,0,0,4.0433,4.0435,4.0556,4.0557,4.0558,4.0641,4.0642,4.0643,4.0692,4.0692,4.0693,4.0693,4.0774,4.0776,4.0778,0,0,0,0,0,0,0,0,0,0,0,0,0,4.0499,4.0436,4.0556,4.0593,4.0597,4.0641,4.0642,4.0643,4.0692,4.0692,4.0693,4.0693,4.0773,4.0776,4.0779,4.0791,0,0,4.0788,4.0789,0,0,0,0,0,0,0,0,4.0495,4.0504,4.0586,4.059,4.0595,4.0656,4.0629,4.0693,4.0692,4.0656,4.0693,4.0693,4.0735,4.0741,4.0756,4.0795,4.0798,4.0788,4.079,4.0791,4.0792,0,0,0,0,0,0,0,4.0491,4.05,4.059,4.0587,4.0593,4.0604,4.0614,4.0641,4.0692,4.0659,4.0663,4.0672,4.0737,4.0753,4.0758,4.0799,4.0788,4.0791,4.0793,4.0794,4.0854,4.0854,0,0,0,0,0,0,4.0481,4.0496,4.0587,4.0592,4.0545,4.0606,4.0617,4.0636,4.0692,4.0701,4.0672,4.0674,4.0748,4.0754,4.0761,4.078,4.0791,4.0794,4.0796,4.0854,4.0854,4.0854,0,0,0,0,0,0,4.0478,4.0489,4.0584,4.0545,4.0558,4.0608,4.0629,4.0638,4.0654,4.0702,4.0711,4.0679,4.0748,4.0757,4.0784,4.0784,4.0795,4.0798,4.0854,4.0854,4.0854,4.0817,0,0,0,0,0,0,4.0474,4.0487,4.0493,4.0545,4.056,4.0606,4.0629,4.0639,4.0659,4.0663,4.0711,4.0719,4.0749,4.0779,4.0787,4.0788,4.08,4.0855,4.0854,4.0854,4.0819,4.0816,4.0813,0,0,0,0,0,4.047,4.0478,4.0493,4.0504,4.0569,4.0606,4.0614,4.065,4.0659,4.0665,4.0696,4.0718,4.0782,4.0781,4.079,4.0792,4.0855,4.0854,4.0854,4.082,4.0816,4.0813,0,0,0,0,0,0,4.0423,4.0485,4.0503,4.0529,4.0562,4.0614,4.0623,4.0645,4.0675,4.0677,4.0718,4.0728,4.0752,4.0775,4.0773,4.0808,4.0821,4.0822,4.0792,4.0789,4.0786,4.078,4.0803,0,0,0,0,0,4.0416,4.0442,4.0495,4.0512,4.0528,4.0572,4.059,4.0615,4.065,4.0664,4.0697,4.0729,4.0757,4.0774,4.0802,4.0822,4.0834,4.0828,4.0825,4.0823,4.0824,4.0837,4.0835,4.0852,4.0852,4.0852,0,0,4.04,4.0438,4.0452,4.0504,4.0532,4.0558,4.0584,4.0609,4.0628,4.0667,4.0695,4.0721,4.0759,4.0783,4.0795,4.0803,4.0822,4.0822,4.082,4.0822,4.0836,4.0835,4.0833,4.0852,4.0852,4.0852,0,0,4.0386,4.0417,4.0436,4.0465,4.0509,4.0538,4.0543,4.0592,4.0611,4.0641,4.0671,4.0693,4.074,4.0767,4.0787,4.0784,4.0805,4.0792,4.0778,4.079,4.0789,4.0788,4.0788,4.0787,4.0793,4.0792,4.0792,0,4.0362,4.0403,4.0442,4.0467,4.0489,4.0527,4.0546,4.0572,4.0621,4.0635,4.0644,4.0705,4.0733,4.0765,4.0764,4.0779,4.0785,4.0787,4.0786,4.0786,4.0785,4.0786,4.0785,4.0791,4.0791,4.0791,4.0791,0,4.0371,4.0398,4.0408,4.0458,4.0481,4.0502,4.0544,4.0563,4.0586,4.0614,4.0644,4.068,4.0716,4.0726,4.0747,4.076,4.0764,4.0779,4.0793,4.0781,4.0782,4.0783,4.0788,4.0789,4.0789,4.079,0,0,4.0328,4.0401,4.0404,4.0428,4.048,4.0501,4.0524,4.0562,4.0577,4.061,4.0631,4.067,4.0685,4.0707,4.0732,4.0743,4.074,4.0757,4.0759,4.0753,4.0757,4.0746,4.0746,4.0754,4.0755,4.0755,4.0754,0,4.0322,4.0368,4.0405,4.0436,4.0462,4.05,4.052,4.0553,4.058,4.0606,4.0635,4.0663,4.068,4.0694,4.0707,4.0738,4.0742,4.0738,4.0773,4.0774,4.0763,4.0746,4.0735,4.0732,4.0755,4.0755,4.0755,0,4.0321,4.0356,4.039,4.044,4.0453,4.047,4.0509,4.0533,4.0571,4.0591,4.0616,4.0643,4.0668,4.068,4.0716,4.0713,4.0729,4.0746,4.0747,4.0752,4.0764,4.0751,4.0733,4.0732,4.0756,4.0756,4.0756,0,4.0288,4.0343,4.0371,4.0389,4.0449,4.046,4.0485,4.0525,4.0545,4.0578,4.0592,4.0627,4.0646,4.0671,4.0707,4.0712,4.0738,4.0753,4.0755,4.0754,4.0759,4.0758,4.0743,4.0768,4.0768,4.0768,4.0768,0,4.0278,4.0298,4.0357,4.0374,4.0397,4.0439,4.046,4.0488,4.0523,4.0545,4.0579,4.0599,4.0644,4.067,4.0697,4.0723,4.0731,4.0746,4.0754,4.0744,4.0742,4.0755,4.0756,4.0768,4.0768,4.0768,4.0768,0,4.0245,4.0286,4.0319,4.0373,4.0387,4.0402,4.0447,4.0465,4.0495,4.0523,4.0532,4.0578,4.061,4.0648,4.0691,4.071,4.0733,4.0743,4.072,4.0725,4.0725,4.0724,4.0718,4.072,4.0743,4.0743,4.0743,0,4.0236,4.0252,4.0309,4.0328,4.0352,4.0381,4.0404,4.0445,4.0467,4.0513,4.0525,4.0559,4.059,4.0638,4.0675,4.0709,4.072,4.0716,4.0725,4.0715,4.0721,4.072,4.0722,4.0713,4.0713,4.0712,4.0712,0,4.0216,4.0236,4.0267,4.0306,4.0332,4.0364,4.0397,4.041,4.0458,4.0481,4.0515,4.0538,4.0584,4.0618,4.0656,4.0681,4.0704,4.0709,4.0711,4.0701,4.0688,4.0696,4.0714,4.0709,4.0709,4.0709,4.0709,4.071,4.0196,4.0212,4.0256,4.029,4.0319,4.035,4.037,4.0403,4.0433,4.0475,4.0497,4.053,4.0569,4.0624,4.0647,4.0674,4.0682,4.0685,4.0686,4.0686,4.0684,4.0684,4.0681,4.0681,4.0681,4.0681,4.0681,0,4.0178,4.0208,4.0239,4.0286,4.0313,4.0334,4.0373,4.0393,4.0423,4.0458,4.0488,4.0527,4.056,4.06,4.0636,4.0649,4.0661,4.0657,4.0657,4.0662,4.0674,4.0669,4.0648,4.0648,4.0648,4.0648,4.0648,4.0648,4.0172,4.0202,4.0227,4.0272,4.0302,4.0337,4.0357,4.0385,4.0413,4.0456,4.0485,4.0512,4.0548,4.0588,4.0619,4.063,4.0642,4.0635,4.0649,4.0659,4.0661,4.0664,4.066,4.0637,4.0637,4.0635,4.0635,4.0635]}]]